Location: Sternwarte_Laufen
(47.9344°N, 12.9346°E)
Time: 15:25:48
(UTC+02:00)

ISS - Pass Details

Date: 24 May 2018
Orbit: 402 x 407 km, 51.6° (Epoch: 27 May)

Event Time Altitude Azimuth Distance (km) Brightness Sun altitude
Rises 22:51:15 0° 264° (W) 2,318 0.4 -14.9°
Reaches altitude 10° 22:53:22 10° 270° (W) 1,459 -0.6 -15.1°
Maximum altitude 22:56:34 51° 347° (NNW) 517 -2.9 -15.4°
Drops below altitude 10° 22:59:46 10° 65° (ENE) 1,460 -1.1 -15.7°
Sets 23:01:53 0° 71° (ENE) 2,320 -0.1 -15.8°
